COSMOS 793

导读

**COSMOS 793卫星摘要** COSMOS 793(宇宙793)是苏联(CIS)于1976年1月28日发射的人造卫星,属于苏联“宇宙”号卫星系列。该系列是世界上卫星数量最多的卫星系列,包含大量军用与民用卫星,其中多数为军用卫星,涵盖侦察、通信、导航等多种用途,COSMOS 793是该系列冷战时期的典型卫星之一。

Basic Information
目录编号:
8609
目录名称:
COSMOS 793
国际标识:
1976-008C
轨道中心:
EARTH
卫星名称:
COSMOS 793
卫星全名:
--
卫星状态:
在轨 (已飞行18403 天)
发射日期:
1976-01-28 UTC
国别 :
俄罗斯(独联体) (CIS)
星等 :
--
Orbit Information
数据来源 国际轨道数据 AOE轨道数据
星历时间 2026-06-17T07:40:00+0800
9小时前
查看轨道信息
2026-06-16T04:00:00+0800
1天前
查看轨道信息
半长轴 7831.583km 7831.582km
偏心率 0.0046629 0.0046707
轨道倾角 74.055° 74.054°
近地点辐角 0.760° 2.448°
升交点赤经 243.064° 244.600°
平近点角 172.721° 14.298°
近地点 1416.928km 1416.866km
远地点 1489.964km 1490.024km
周期 114.957分钟 114.957分钟
每日圈数 12.526464 12.526466
Detailed Information
使用方式:
暂无
2D Orbit Map
3D Orbit Map
Orbit Altitude Analysis Chart
Orbit Inclination Analysis Chart
Orbit Comprehensive Analysis Chart
View Comprehensive Chart